Home > Weather > Santarém > Past weeks

Flag for Brazil Weather for the Past 2 Weeks in Santarém, Pará, Brazil

Now
77 °F

Broken clouds.


Feels Like: 78 °F
Forecast: 74 / 85 °F
Wind: 2 mph from Southeast

Location: Santarem-Aeroporto

Current Time: Apr 30, 2016 at 8:23:13 AM

Latest Report: Apr 30, 2016 at 8:00 AM


Visibility: N/A

Pressure: 29.92 "Hg

Humidity: 94%

Dew Point: 75 °F

Location of SantarémLocation

Historic Weather in Santarém — Graph

°F

Santarém Temperature Yesterday

Maximum temperature yesterday: 79 °F (at 12:00 PM)
Minimum temperature yesterday: 73 °F (at 6:00 AM)
Average temperature yesterday: 76 °F

High & Low Weather Summary for the Past Weeks

 TemperatureHumidityPressure
High90 °F (Apr 20, 5:00 PM)100% (Apr 15, 8:00 PM)29.98 "Hg (Apr 15, 8:00 PM)
Low41 °F (Apr 17, 7:00 AM)66% (Apr 25, 4:00 PM)29.71 "Hg (Apr 20, 4:00 PM)
Average80 °F87%29.83 "Hg
* Reported Apr 15 7:00 AM — Apr 30 7:00 AM, Santarém, Weather by CustomWeather, © 2016

Note: Actual official high and low records may vary slightly from our data, if they occured in-between our weather recording intervals... More about our weather records

Advertising

Santarém Weather History for the Previous 24 Hours

Scroll right to see more
 ConditionsComfort  
Time TempWeatherWind HumidityBarometerVisibility
7:00 AM
Sat, Apr 30
75 °FPartly cloudy.2 mph94%29.89 "HgN/A
6:00 AM75 °FPassing clouds.3 mph94%29.86 "HgN/A
5:00 AM75 °FPassing clouds.No wind94%29.86 "HgN/A
4:00 AM75 °FPassing clouds.No wind94%29.86 "HgN/A
3:00 AM75 °FPartly cloudy.No wind94%29.86 "HgN/A
2:00 AM75 °FPassing clouds.No wind100%29.89 "HgN/A
1:00 AM75 °FPassing clouds.No wind94%29.89 "HgN/A
12:00 AM75 °FPassing clouds.No wind94%29.89 "HgN/A
11:00 PM
Fri, Apr 29
75 °FPassing clouds.No wind94%29.92 "HgN/A
10:00 PM75 °FThundershowers. Passing clouds.No wind100%N/AN/A
9:00 PM75 °FPassing clouds.No wind100%29.89 "HgN/A
8:00 PM77 °FPassing clouds.No wind94%29.86 "HgN/A
7:00 PM77 °FPartly sunny.No wind94%29.83 "HgN/A
6:00 PM77 °FBroken clouds.No wind94%29.80 "HgN/A
5:00 PM77 °FBroken clouds.3 mph94%29.80 "HgN/A
4:00 PM79 °FBroken clouds.5 mph89%29.80 "HgN/A
3:00 PM77 °FBroken clouds.5 mph94%29.83 "HgN/A
2:00 PM75 °FLight rain. Broken clouds.2 mph94%29.86 "Hg3 mi
1:00 PM77 °FLight rain. Partly sunny.5 mph94%29.89 "Hg2 mi
12:00 PM79 °FBroken clouds.5 mph89%29.92 "HgN/A
11:00 AM77 °FLight rain. More clouds than sun.3 mph94%29.92 "HgN/A
10:00 AM75 °FLight rain. More clouds than sun.3 mph94%29.92 "HgN/A
9:00 AM73 °FLight rain. More clouds than sun.5 mph100%29.92 "Hg5 mi
8:00 AM73 °FLight rain. More clouds than sun.3 mph100%29.89 "HgN/A
Weather by CustomWeather, © 2016

See weather overviewHow to use our weather pages